Tracking 25707 objects as of 29-Jun-2022
HD Live streaming from Space Station
objects crossing your sky now

DMSP 5D-2 F13 DEB

Track DMSP 5D-2 F13 DEB now!
10-day predictions


NORAD ID: 40449
Int'l Code: 1995-015BB
Perigee: 826.5 km
Apogee: 874.4 km
Inclination: 98.9 °
Period: 101.8 minutes
Semi major axis: 7221 km
RCS: Unknown
Launch date: March 24, 1995
Source: United States (US)
Launch site: AIR FORCE WESTERN TEST RANGE (AFWTR)

Note: This is SATELLITE DEBRIS
aabbcc
Your satellite tracking list
Your tracking list is empty




NASA's NSSDC Master Catalog

Two Line Element Set (TLE):
1 40449U 95015BB  22179.73723935  .00001560  00000-0  82883-3 0  9995
2 40449  98.8557 158.6859 0033214 108.7619 251.7163 14.14702294377424
Source of the keplerian elements: AFSPC